Latest Weather Observations for Browse Island

IDW60801

Issued at 4:02 am WST Saturday 28 May 2016 (issued every 30 minutes, with the page automatically refreshed every 10 minutes)

About weather observations | Map of weather stations | Latest weather observations for WA | Other Formats
Station Details ID: 200784 Name: BROWSE ISLAND Lat: -14.11 Lon: 123.55 Height: 3.7 m
Data from the previous 72 hours. | See also: Recent months at Browse Island
Date/Time
WST
Temp
°C
App
Temp
°C
Dew
Point
Rel
Hum
%
Delta-T
°C
Wind Press
QNH
hPa
Press
MSL
hPa
Rain
since 9 am
mm
Dir
 
Spd
km/h
Gust
km/h
Spd
kts
Gust
kts
28/04:00am 29.3 - - - - S 17 19 9 10 1012.0 1012.8 -
28/03:30am 29.0 - - - - S 19 17 10 9 1012.0 - -
28/03:00am 29.7 - - - - S 20 - 11 - 1012.0 1012.8 -
28/02:30am 30.0 - - - - SSW 19 - 10 - 1013.0 - -
28/02:00am 29.4 - - - - S 17 - 9 - 1012.0 1012.8 -
28/01:30am 29.0 - - - - SSW 17 - 9 - 1013.0 - -
28/01:00am 29.2 - - - - SSW 17 - 9 - 1013.0 1012.9 -
28/12:30am 29.0 - - - - SSW 17 - 9 - 1013.0 - -
28/12:00am 29.2 - - - - SSW 17 - 9 - 1013.0 1013.1 -
 
Date/Time
WST
Temp
°C
App
Temp
°C
Dew
Point
Rel
Hum
%
Delta-T
°C
Wind Press
QNH
hPa
Press
MSL
hPa
Rain
since 9 am
mm
Dir
 
Spd
km/h
Gust
km/h
Spd
kts
Gust
kts
27/11:30pm 29.0 - - - - SSW 17 - 9 - 1013.0 - -
27/11:00pm 29.2 - - - - SSW 15 - 8 - 1013.0 1013.3 -
27/10:30pm 29.0 - - - - SSW 13 - 7 - 1013.0 - -
27/10:00pm 29.2 - - - - SSW 13 - 7 - 1013.0 1013.6 -
27/09:30pm 29.0 - - - - SSW 13 - 7 - 1013.0 - -
27/09:00pm 29.4 - - - - SSW 13 - 7 - 1013.0 1013.4 -
27/08:30pm 30.0 - - - - SSW 13 - 7 - 1013.0 - -
27/08:00pm 29.4 - - - - S 15 - 8 - 1013.0 1013.1 -
27/07:30pm 29.0 - - - - SSW 17 - 9 - 1013.0 - -
27/07:00pm 29.4 - - - - S 17 - 9 - 1013.0 1012.9 -
27/06:30pm 30.0 - - - - SSW 17 - 9 - 1012.0 - -
27/06:00pm 29.4 - - - - S 17 - 9 - 1012.0 1012.4 -
27/05:30pm 29.0 - - - - S 15 - 8 - 1012.0 - -
27/05:00pm 29.4 - - - - S 13 - 7 - 1012.0 1012.0 -
27/04:30pm 29.0 - - - - S 11 - 6 - 1011.0 - -
27/04:00pm 29.4 - - - - S 13 - 7 - 1011.0 1011.6 -
27/03:30pm 30.0 - - - - S 11 - 6 - 1011.0 - -
27/03:00pm 29.4 - - - - SSW 13 - 7 - 1011.0 1011.3 -
27/02:30pm 29.0 - - - - S 13 - 7 - 1011.0 - -
27/02:00pm 29.2 - - - - S 15 - 8 - 1011.0 1011.5 -
27/01:30pm 29.0 - - - - S 13 - 7 - 1011.0 - -
27/01:00pm 29.5 - - - - S 15 - 8 - 1012.0 1012.0 -
27/12:30pm 29.0 - - - - S 15 - 8 - 1012.0 - -
27/12:00pm 29.6 - - - - S 15 - 8 - 1013.0 1012.9 -
27/11:30am 29.0 - - - - S 15 - 8 - 1013.0 - -
27/11:00am 29.7 - - - - SSE 17 - 9 - 1014.0 1013.9 -
27/10:30am 30.0 - - - - S 17 - 9 - 1014.0 - -
27/10:00am 29.3 - - - - S 17 - 9 - 1014.0 1014.7 -
27/09:30am 29.0 - - - - S 17 - 9 - 1015.0 - -
27/09:00am 29.5 - - - - S 15 - 8 - 1015.0 1015.1 -
27/08:30am 29.0 - - - - S 17 - 9 - 1015.0 - -
27/08:00am 29.2 - - - - S 17 - 9 - 1015.0 1014.9 -
27/07:30am 29.0 - - - - S 15 - 8 - 1014.0 - -
27/07:00am 29.2 - - - - S 17 - 9 - 1014.0 1014.6 -
27/06:30am 29.0 - - - - S 17 - 9 - 1014.0 - -
27/06:00am 28.9 - - - - S 20 - 11 - 1014.0 1014.0 -
27/05:30am 29.0 - - - - S 19 - 10 - 1013.0 - -
27/05:00am 28.6 - - - - S 19 - 10 - 1013.0 1013.6 -
27/04:30am 29.0 - - - - S 20 - 11 - 1013.0 - -
27/04:00am 28.4 - - - - S 17 - 9 - 1013.0 1013.3 -
27/03:30am 28.0 - - - - S 15 - 8 - 1013.0 - -
27/03:00am 28.4 - - - - S 13 - 7 - 1013.0 1012.9 -
27/02:30am 28.0 - - - - S 13 - 7 - 1013.0 - -
27/02:00am 28.3 - - - - S 13 - 7 - 1013.0 1013.2 -
27/01:30am 28.0 - - - - S 13 - 7 - 1013.0 - -
27/01:00am 28.4 - - - - SSW 13 - 7 - 1013.0 1013.8 -
27/12:30am 29.0 - - - - SSW 11 - 6 - 1014.0 - -
27/12:00am 28.4 - - - - S 11 - 6 - 1014.0 1014.0 -
 
Date/Time
WST
Temp
°C
App
Temp
°C
Dew
Point
Rel
Hum
%
Delta-T
°C
Wind Press
QNH
hPa
Press
MSL
hPa
Rain
since 9 am
mm
Dir
 
Spd
km/h
Gust
km/h
Spd
kts
Gust
kts
26/11:30pm 29.0 - - - - SSW 13 - 7 - 1014.0 - -
26/11:00pm 28.6 - - - - S 11 - 6 - 1014.0 1013.9 -
26/10:30pm 29.0 - - - - S 15 - 8 - 1014.0 - -
26/10:00pm 28.7 - - - - S 15 - 8 - 1014.0 1014.0 -
26/09:30pm 29.0 - - - - SSW 13 - 7 - 1014.0 - -
26/09:00pm 28.6 - - - - S 13 - 7 - 1013.0 1013.7 -
26/08:30pm 29.0 - - - - S 9 - 5 - 1013.0 - -
26/08:00pm 28.9 - - - - S 9 - 5 - 1013.0 1013.5 -
26/07:30pm 29.0 - - - - S 9 - 5 - 1013.0 - -
26/07:00pm 28.9 - - - - S 7 - 4 - 1013.0 1013.1 -
26/06:30pm 29.0 - - - - SSE 7 - 4 - 1012.0 - -
26/06:00pm 29.0 - - - - S 9 - 5 - 1012.0 1012.6 -
26/05:30pm 29.0 - - - - SSW 7 - 4 - 1012.0 - -
26/05:00pm 29.1 - - - - S 7 - 4 - 1012.0 1012.7 -
26/04:30pm 29.0 - - - - S 4 - 2 - 1012.0 - -
26/04:00pm 29.3 - - - - S 9 - 5 - 1012.0 1012.4 -
26/03:30pm 30.0 - - - - SSE 11 - 6 - 1012.0 - -
26/03:00pm 29.4 - - - - S 9 - 5 - 1012.0 1012.2 -
26/02:30pm 30.0 - - - - SSE 9 - 5 - 1012.0 - -
26/02:00pm 29.8 - - - - SSE 7 - 4 - 1012.0 1012.2 -
26/01:30pm 30.0 - - - - SE 9 - 5 - 1012.0 - -
26/01:00pm 30.3 - - - - SE 9 - 5 - 1012.0 1012.7 -
26/12:30pm 30.0 - - - - SSE 11 - 6 - 1013.0 - -
26/12:00pm 29.4 - - - - S 9 - 5 - 1013.0 1013.2 -
26/11:30am 29.0 - - - - S 9 - 5 - 1013.0 - -
26/11:00am 29.7 - - - - SSE 9 - 5 - 1014.0 1014.2 -
26/10:30am 29.0 - - - - SSE 11 - 6 - 1014.0 - -
26/10:00am 29.4 - - - - SSE 9 - 5 - 1014.0 1014.7 -
26/09:30am 29.0 - - - - SSE 9 - 5 - 1015.0 - -
26/09:00am 29.2 - - - - SSE 7 - 4 - 1015.0 1015.0 -
26/08:30am 29.0 - - - - SE 7 - 4 - 1015.0 - -
26/08:00am 28.9 - - - - SE 11 - 6 - 1014.0 1014.6 -
26/07:30am 29.0 - - - - SE 11 - 6 - 1014.0 - -
26/07:00am 28.3 - - - - SSE 9 - 5 - 1014.0 1014.1 -
26/06:30am 28.0 - - - - SE 9 - 5 - 1013.0 - -
26/06:00am 28.1 - - - - SE 9 - 5 - 1013.0 1013.3 -
26/05:30am 28.0 - - - - SE 9 - 5 - 1013.0 - -
26/05:00am 28.1 - - - - SSE 9 - 5 - 1013.0 1012.9 -
26/04:30am 28.0 - - - - SSE 9 - 5 - 1012.0 - -
26/04:00am 28.2 - - - - SSE 9 - 5 - 1012.0 1012.4 -
26/03:30am 28.0 - - - - S 7 - 4 - 1012.0 - -
26/03:00am 28.2 - - - - S 6 - 3 - 1012.0 1012.3 -
26/02:30am 28.0 - - - - S 2 - 1 - 1012.0 - -
26/02:00am 28.3 - - - - SSW 2 - 1 - 1012.0 1012.5 -
26/01:30am 28.0 - - - - SSW 6 - 3 - 1012.0 - -
26/01:00am 28.2 - - - - CALM 0 - 0 - 1012.0 1012.6 -
26/12:30am 28.0 - - - - SSW 2 - 1 - 1012.0 - -
26/12:00am 28.4 - - - - S 9 - 5 - 1012.0 1012.6 -
 
Date/Time
WST
Temp
°C
App
Temp
°C
Dew
Point
Rel
Hum
%
Delta-T
°C
Wind Press
QNH
hPa
Press
MSL
hPa
Rain
since 9 am
mm
Dir
 
Spd
km/h
Gust
km/h
Spd
kts
Gust
kts
25/11:30pm 29.0 - - - - S 9 - 5 - 1012.0 - -
25/11:00pm 28.3 - - - - S 9 - 5 - 1012.0 1012.7 -
25/10:30pm 28.0 - - - - S 7 - 4 - 1012.0 - -
25/10:00pm 28.4 - - - - S 9 - 5 - 1013.0 1012.9 -
25/09:30pm 29.0 - - - - S 7 - 4 - 1013.0 - -
25/09:00pm 28.4 - - - - CALM 0 - 0 - 1013.0 1012.9 -
25/08:30pm 28.0 - - - - CALM 0 - 0 - 1013.0 - -
25/08:00pm 28.4 - - - - CALM 0 - 0 - 1013.0 1012.9 -
25/07:30pm 29.0 - - - - CALM 0 - 0 - 1012.0 - -
25/07:00pm 28.6 - - - - CALM 0 - 0 - 1012.0 1012.4 -
25/06:30pm 29.0 - - - - SSE 2 - 1 - 1012.0 - -
25/06:00pm 28.8 - - - - S 7 - 4 - 1011.0 1011.8 -
25/05:30pm 29.0 - - - - S 4 - 2 - 1011.0 - -
25/05:00pm 28.8 - - - - SSE 4 - 2 - 1011.0 1011.7 -
25/04:30pm 29.0 - - - - CALM 0 - 0 - 1011.0 - -
25/04:00pm 29.0 - - - - CALM 0 - 0 - 1011.0 1011.2 -
25/03:30pm 29.0 - - - - CALM 0 - 0 - 1011.0 - -
25/03:00pm 29.6 - - - - CALM 0 - 0 - 1011.0 1011.2 -
25/02:30pm 30.0 - - - - E 2 - 1 - 1011.0 - -
25/02:00pm 29.4 - - - - SSE 2 - 1 - 1011.0 1011.0 -
25/01:30pm 29.0 - - - - SSE 6 - 3 - 1011.0 - -
25/01:00pm 29.7 - - - - SSE 6 - 3 - 1011.0 1011.4 -
25/12:30pm 29.0 - - - - SSE 7 - 4 - 1011.0 - -
25/12:00pm 29.6 - - - - SE 9 - 5 - 1012.0 1012.1 -
25/11:30am 30.0 - - - - SE 9 - 5 - 1012.0 - -
25/11:00am 29.4 - - - - SE 11 - 6 - 1013.0 1012.9 -
25/10:30am 30.0 - - - - ESE 13 - 7 - 1013.0 - -
25/10:00am 29.2 - - - - SE 11 - 6 - 1013.0 1013.3 -
25/09:30am 29.0 - - - - ESE 11 - 6 - 1013.0 - -
25/09:00am 29.4 - - - - ESE 13 - 7 - 1013.0 1013.5 -
25/08:30am 29.0 - - - - SE 11 - 6 - 1013.0 - -
25/08:00am 28.4 - - - - SE 13 - 7 - 1013.0 1013.3 -
25/07:30am 28.0 - - - - SE 13 - 7 - 1013.0 - -
25/07:00am 28.1 - - - - ESE 13 - 7 - 1013.0 1012.9 -
25/06:30am 28.0 - - - - SE 13 - 7 - 1012.0 - -
25/06:00am 28.1 - - - - ESE 13 - 7 - 1012.0 1012.5 -
25/05:30am 28.0 - - - - SE 15 - 8 - 1012.0 - -
25/05:00am 28.0 - - - - S 11 - 6 - 1011.0 1011.6 -
25/04:30am 28.0 - - - - S 11 - 6 - 1011.0 - -

Other Formats:

Comma delimited format used in spreadsheet applications
http://www.bom.gov.au/fwo/IDW60801/IDW60801.94103.axf

JavaScript Object Notation format (JSON) in row-major order
http://www.bom.gov.au/fwo/IDW60801/IDW60801.94103.json